Location: Camerons Lookout
(40.9833°S, 175.9333°E)
Time: 17:47:30
(UTC+00:00)

Gbstr 26 Del rocket - Pass Details

Date: 14 January 2026
Orbit: 490 x 1217 km, 51.8° (Epoch: 18 February)

Event Time Altitude Azimuth Distance (km) Brightness Sun altitude
Rises 11:28:15 0° 234° (SW) 3,273 7.5 -26.4°
Reaches altitude 10° 11:30:33 10° 230° (SW) 2,448 6.8 -26.5°
Maximum altitude 11:36:20 60° 149° (SSE) 1,094 4.4 -26.7°
Enters shadow 11:39:38 31° 82° (E) 1,727 5.1 -26.9°
